MICROMAS-2A (43131 NORAD) Tracking and Keplerian Element Data

This shows tracking and keplerian element data for the satellite.

Feedback or suggestion? Click here.




ElementValue
Catalog43131
NameMICROMAS-2A
Epoch Orbit6599
Epoch Day80.90404803
Epoch Year2019
RAAN149.019
Inclination97.498
Eccentricity0.0009103
Argument of Perigee195.7933
Mean Anonmoly164.3021
Mean Motion15.23765998
Decay Rate1.826E-05
L11 43131U 18004W 19080.90404803 .00001826 00000-0 78889-4 0 9992
L22 43131 97.4980 149.0190 0009103 195.7933 164.3021 15.23765998 65996

Live tracking and technical data element details for MICROMAS-2A (NORAD 43131). MICROMAS-2A can be tracked NOW for your location showing map with azimuth and elevation plus other details from your city location.

Track the satellite on the map from your city or location and see movement details for azimuth, elevation, latitude, longitude, range, height, and movement on the map or in text.







IsCatalogInMostPopularTable: catalog: 43131, numindb: 257
Update: records affected: 1



GetName: 43131 MICROMAS-2A

Hit Count: updated at: Sat, 23 Mar 2019 02:15:58 GMT